Location: Les Jeannots
(43.2262°N, 5.5774°E)
Time: 02:53:46
(UTC+00:00)

IGS 5A - Pass Details

Date: 05 July 2020
Orbit: 582 x 589 km, 97.6° (Epoch: 27 July)

Event Time Altitude Azimuth Distance (km) Brightness Sun altitude
Exits shadow 20:35:35 15° 157° (SSE) 1,628 5.1 -11.4°
Maximum altitude 20:39:00 70° 75° (ENE) 627 3.5 -11.8°
Drops below altitude 10° 20:43:09 10° 352° (N) 1,920 7.0 -12.3°
Sets 20:45:19 0° 350° (N) 2,824 8.0 -12.5°
